WetterOnline ( http://www.wetteronline.de )

Wetter aktuell Neustadt i.H.

Aktuelles Wetter: Pelzerhaken/Neustadt i.H. (2m)

6-stündlich | Neueste Meldungen
Ortszeit Temperatur Wetter
Fr, 20.07. 20:00 22.3° C leicht bewölkt
Fr, 20.07. 14:00 23.9° C wolkig
Fr, 20.07. 8:00 16.4° C wolkenlos
Fr, 20.07. 2:00 14.6° C fast wolkenlos
Do, 19.07. 20:00 22.8° C wolkenlos
Do, 19.07. 14:00 23.1° C bewölkt
Do, 19.07. 8:00 18.7° C wolkenlos
Do, 19.07. 2:00 17.1° C bewölkt
Ortszeit Temperatur Wetter
Fr, 20.07. 23:30 14.1° C fast wolkenlos
Fr, 20.07. 23:10 13.9° C leicht bewölkt
Fr, 20.07. 23:00 14.6° C wolkig
Fr, 20.07. 22:50 14.6° C wolkig
Fr, 20.07. 22:40 15.3° C wolkig
Fr, 20.07. 22:30 15.5° C wolkig
Fr, 20.07. 22:00 16.6° C fast wolkenlos
Fr, 20.07. 21:30 19.5° C wolkig
Fr, 20.07. 21:00 20.9° C wolkig
Fr, 20.07. 20:30 21.8° C wolkig
Ortszeit Relative Feuchte Sichtweite
Fr, 20.07. 20:00 58% 50 km
Fr, 20.07. 14:00 44% 28 km
Fr, 20.07. 8:00 75% 26 km
Fr, 20.07. 2:00 71% 70 km
Do, 19.07. 20:00 39% 45 km
Do, 19.07. 14:00 45% 55 km
Do, 19.07. 8:00 62% 30 km
Do, 19.07. 2:00 74% 50 km
Ortszeit Relative Feuchte Sichtweite
Fr, 20.07. 23:30 88% 23 km
Fr, 20.07. 23:10 90% -
Fr, 20.07. 23:00 85% 25 km
Fr, 20.07. 22:50 85% -
Fr, 20.07. 22:40 82% -
Fr, 20.07. 22:30 85% 25 km
Fr, 20.07. 22:00 79% 30 km
Fr, 20.07. 21:30 67% 40 km
Fr, 20.07. 21:00 63% 40 km
Fr, 20.07. 20:30 56% 45 km
Ortszeit Niederschlagsmenge Niederschlagsart
Fr, 20.07. 20:00 0.0 l/m2 in 12 Std. -
Fr, 20.07. 14:00 0.0 l/m2 in 6 Std. -
Fr, 20.07. 8:00 0.0 l/m2 in 12 Std. -
Fr, 20.07. 2:00 0.0 l/m2 in 6 Std. -
Do, 19.07. 20:00 0.0 l/m2 in 12 Std. -
Do, 19.07. 14:00 0.0 l/m2 in 6 Std. -
Do, 19.07. 8:00 0.0 l/m2 in 12 Std. -
Do, 19.07. 2:00 0.0 l/m2 in 6 Std. -
Ortszeit Niederschlagsmenge Niederschlagsart
Fr, 20.07. 23:30 0.0 l/m2 in 1 Std. -
Fr, 20.07. 23:10 keine Meldung -
Fr, 20.07. 23:00 0.0 l/m2 in 1 Std. -
Fr, 20.07. 22:50 keine Meldung -
Fr, 20.07. 22:40 keine Meldung -
Fr, 20.07. 22:30 0.0 l/m2 in 1 Std. -
Fr, 20.07. 22:00 0.0 l/m2 in 1 Std. -
Fr, 20.07. 21:30 0.0 l/m2 in 1 Std. -
Fr, 20.07. 21:00 0.0 l/m2 in 1 Std. -
Fr, 20.07. 20:30 0.0 l/m2 in 1 Std. -
Ortszeit Stärke Spitze Richtung
km/h Bft. km/h Grad Sektor
Fr, 20.07. 20:00 7 2 25 120° SO
Fr, 20.07. 14:00 17 3 26 150° SO
Fr, 20.07. 8:00 7 2 18 310° NW
Fr, 20.07. 2:00 11 2 22 310° NW
Do, 19.07. 20:00 11 2 37 260° W
Do, 19.07. 14:00 14 3 32 310° NW
Do, 19.07. 8:00 13 3 26 340° N
Do, 19.07. 2:00 13 3 31 320° NW
Ortszeit Stärke Spitze Richtung
km/h Bft. km/h Grad Sektor
Fr, 20.07. 23:30 4 1 11 130° SO
Fr, 20.07. 23:10 6 1 - 160° S
Fr, 20.07. 23:00 4 1 7 110° O
Fr, 20.07. 22:50 4 1 - 110° O
Fr, 20.07. 22:40 4 1 - 10° N
Fr, 20.07. 22:30 4 1 7 30° NO
Fr, 20.07. 22:00 6 1 9 90° O
Fr, 20.07. 21:30 4 1 11 120° SO
Fr, 20.07. 21:00 4 1 11 120° SO
Fr, 20.07. 20:30 4 1 11 130° SO
Ortszeit Untergrenze Bedeckung Gattung
total tief tief mittel hoch
Fr, 20.07. 20:00 9000 m 7/8 0/8 - - -
Fr, 20.07. 14:00 - 8/8 - - - -
Fr, 20.07. 8:00 - 0/8 0/8 - - -
Fr, 20.07. 2:00 10500 m 1/8 0/8 - - -
Do, 19.07. 20:00 - 0/8 0/8 - - -
Do, 19.07. 14:00 1500 m 7/8 - - - -
Do, 19.07. 8:00 - 0/8 0/8 - - -
Do, 19.07. 2:00 1500 m 7/8 7/8 - - -
Ortszeit Bedeckungsgrad in Achtel und Wolkenuntergrenze
Fr, 20.07. 23:30 1(7500m)
Fr, 20.07. 23:10 3(7500m)
Fr, 20.07. 23:00 7(7800m) 7(10500m)
Fr, 20.07. 22:50 7(7800m) 7(10500m)
Fr, 20.07. 22:40 6(7800m) 7(10500m)
Fr, 20.07. 22:30 5(7800m) 7(10500m)
Fr, 20.07. 22:00 1(8700m)
Fr, 20.07. 21:30 5(7800m) 7(9000m) 7(10500m)
Fr, 20.07. 21:00 4(7800m) 6(8400m) 8(9000m)
Fr, 20.07. 20:30 5(9000m) 7(9000m) 7(9000m)
Ortszeit Luftdruck NN (hPa) Tendenz (hPa in 3 Std.)
Fr, 20.07. 20:00 1014 - 0,9
Fr, 20.07. 14:00 1016 - 0,7
Fr, 20.07. 8:00 1017 - 0,1
Fr, 20.07. 2:00 1017 - 0,2
Do, 19.07. 20:00 1017 - 0,6
Do, 19.07. 14:00 1018 - 0,5
Do, 19.07. 8:00 1019 + 0,5
Do, 19.07. 2:00 1018 + 0,7
Ortszeit Luftdruck NN (hPa) Tendenz (hPa in 3 Std.)
Fr, 20.07. 23:30 1014 + 0,1
Fr, 20.07. 23:10 1014 keine Meldung
Fr, 20.07. 23:00 1014 + 0,2
Fr, 20.07. 22:50 1014 keine Meldung
Fr, 20.07. 22:40 1014 keine Meldung
Fr, 20.07. 22:30 1014 + 0,1
Fr, 20.07. 22:00 1014 - 0,3
Fr, 20.07. 21:30 1014 - 0,6
Fr, 20.07. 21:00 1014 - 0,7
Fr, 20.07. 20:30 1014 - 0,7
Ortszeit Schneehöhe (cm)
Fr, 20.07. 20:00 0
Fr, 20.07. 14:00 0
Fr, 20.07. 8:00 0
Fr, 20.07. 2:00 0
Do, 19.07. 20:00 0
Do, 19.07. 14:00 0
Do, 19.07. 8:00 0
Do, 19.07. 2:00 0
Ortszeit Schneehöhe (cm)
Fr, 20.07. 23:30 0
Fr, 20.07. 23:10 0
Fr, 20.07. 23:00 0
Fr, 20.07. 22:50 0
Fr, 20.07. 22:40 0
Fr, 20.07. 22:30 0
Fr, 20.07. 22:00 0
Fr, 20.07. 21:30 0
Fr, 20.07. 21:00 0
Fr, 20.07. 20:30 0
Link zu dieser Seite / Seite empfehlen

Das Wetter in ...